Year,Month,Day,Hour,Minute,Value (Times are PST for temperature in C)
2018,07,18,00,00,17.80
2018,07,18,00,01,17.80
2018,07,18,00,02,17.80
2018,07,18,00,03,17.70
2018,07,18,00,04,17.70
2018,07,18,00,05,17.70
2018,07,18,00,06,17.70
2018,07,18,00,07,17.70
2018,07,18,00,08,17.70
2018,07,18,00,09,17.60
2018,07,18,00,10,17.60
2018,07,18,00,11,17.60
2018,07,18,00,12,17.60
2018,07,18,00,13,17.60
2018,07,18,00,14,17.60
2018,07,18,00,15,17.50
2018,07,18,00,16,17.50
2018,07,18,00,17,17.50
2018,07,18,00,18,17.50
2018,07,18,00,19,17.40
2018,07,18,00,20,17.40
2018,07,18,00,21,17.40
2018,07,18,00,22,17.40
2018,07,18,00,23,17.40
2018,07,18,00,24,17.30
2018,07,18,00,25,17.30
2018,07,18,00,26,17.30
2018,07,18,00,27,17.30
2018,07,18,00,28,17.30
2018,07,18,00,29,17.30
2018,07,18,00,30,17.20
2018,07,18,00,31,17.20
2018,07,18,00,32,17.20
2018,07,18,00,33,17.20
2018,07,18,00,34,17.20
2018,07,18,00,35,17.10
2018,07,18,00,36,17.10
2018,07,18,00,37,17.10
2018,07,18,00,38,17.10
2018,07,18,00,39,17.10
2018,07,18,00,40,17.00
2018,07,18,00,41,17.00
2018,07,18,00,42,16.90
2018,07,18,00,43,16.90
2018,07,18,00,44,16.90
2018,07,18,00,45,16.90
2018,07,18,00,46,16.90
2018,07,18,00,47,16.90
2018,07,18,00,48,16.80
2018,07,18,00,49,16.80
2018,07,18,00,50,16.80
2018,07,18,00,51,16.80
2018,07,18,00,52,16.80
2018,07,18,00,53,16.80
2018,07,18,00,54,16.80
2018,07,18,00,55,16.80
2018,07,18,00,56,16.80
2018,07,18,00,57,16.80
2018,07,18,00,58,16.80
2018,07,18,00,59,16.80
2018,07,18,01,00,16.70
2018,07,18,01,01,16.70
2018,07,18,01,02,16.70
2018,07,18,01,03,16.70
2018,07,18,01,04,16.70
2018,07,18,01,05,16.70
2018,07,18,01,06,16.70
2018,07,18,01,07,16.70
2018,07,18,01,08,16.70
2018,07,18,01,09,16.70
2018,07,18,01,10,16.70
2018,07,18,01,11,16.70
2018,07,18,01,12,16.70
2018,07,18,01,13,16.70
2018,07,18,01,14,16.70
2018,07,18,01,15,16.70
2018,07,18,01,16,16.70
2018,07,18,01,17,16.70
2018,07,18,01,18,16.70
2018,07,18,01,19,16.70
2018,07,18,01,20,16.70
2018,07,18,01,21,16.70
2018,07,18,01,22,16.70
2018,07,18,01,23,16.70
2018,07,18,01,24,16.70
2018,07,18,01,25,16.70
2018,07,18,01,26,16.70
2018,07,18,01,27,16.70
2018,07,18,01,28,16.70
2018,07,18,01,29,16.70
2018,07,18,01,30,16.70
2018,07,18,01,31,16.70
2018,07,18,01,32,16.70
2018,07,18,01,33,16.70
2018,07,18,01,34,16.70
2018,07,18,01,35,16.70
2018,07,18,01,36,16.80
2018,07,18,01,37,16.80
2018,07,18,01,38,16.80
2018,07,18,01,39,16.80
2018,07,18,01,40,16.80
2018,07,18,01,41,16.80
2018,07,18,01,42,16.80
2018,07,18,01,43,16.80
2018,07,18,01,44,16.80
2018,07,18,01,45,16.80
2018,07,18,01,46,16.80
2018,07,18,01,47,16.80
2018,07,18,01,48,16.80
2018,07,18,01,49,16.90
2018,07,18,01,50,16.90
2018,07,18,01,51,16.90
2018,07,18,01,52,16.90
2018,07,18,01,53,16.90
2018,07,18,01,54,17.00
2018,07,18,01,55,17.00
2018,07,18,01,56,17.00
2018,07,18,01,57,17.00
2018,07,18,01,58,17.10
2018,07,18,01,59,17.10
2018,07,18,02,00,17.10
2018,07,18,02,01,17.10
2018,07,18,02,02,17.20
2018,07,18,02,03,17.20
2018,07,18,02,04,17.20
2018,07,18,02,05,17.20
2018,07,18,02,06,17.20
2018,07,18,02,07,17.20
2018,07,18,02,08,17.20
2018,07,18,02,09,17.20
2018,07,18,02,10,17.20
2018,07,18,02,11,17.20
2018,07,18,02,12,17.20
2018,07,18,02,13,17.20
2018,07,18,02,14,17.20
2018,07,18,02,15,17.20
2018,07,18,02,16,17.20
2018,07,18,02,17,17.20
2018,07,18,02,18,17.20
2018,07,18,02,19,17.20
2018,07,18,02,20,17.20
2018,07,18,02,21,17.20
2018,07,18,02,22,17.20
2018,07,18,02,23,17.20
2018,07,18,02,24,17.20
2018,07,18,02,25,17.20
2018,07,18,02,26,17.20
2018,07,18,02,27,17.20
2018,07,18,02,28,17.20
2018,07,18,02,29,17.20
2018,07,18,02,30,17.20
2018,07,18,02,31,17.20
2018,07,18,02,32,17.20
2018,07,18,02,33,17.20
2018,07,18,02,34,17.20
2018,07,18,02,35,17.20
2018,07,18,02,36,17.30
2018,07,18,02,37,17.30
2018,07,18,02,38,17.20
2018,07,18,02,39,17.20
2018,07,18,02,40,17.20
2018,07,18,02,41,17.20
2018,07,18,02,42,17.20
2018,07,18,02,43,17.20
2018,07,18,02,44,17.20
2018,07,18,02,45,17.20
2018,07,18,02,46,17.20
2018,07,18,02,47,17.20
2018,07,18,02,48,17.20
2018,07,18,02,49,17.20
2018,07,18,02,50,17.20
2018,07,18,02,51,17.20
2018,07,18,02,52,17.10
2018,07,18,02,53,17.10
2018,07,18,02,54,17.10
2018,07,18,02,55,17.10
2018,07,18,02,56,17.10
2018,07,18,02,57,17.10
2018,07,18,02,58,17.10
2018,07,18,02,59,17.10
2018,07,18,03,00,17.10
2018,07,18,03,01,17.10
2018,07,18,03,02,17.10
2018,07,18,03,03,17.00
2018,07,18,03,04,17.00
2018,07,18,03,05,17.00
2018,07,18,03,06,16.90
2018,07,18,03,07,16.90
2018,07,18,03,08,16.90
2018,07,18,03,09,16.80
2018,07,18,03,10,16.80
2018,07,18,03,11,16.80
2018,07,18,03,12,16.70
2018,07,18,03,13,16.70
2018,07,18,03,14,16.70
2018,07,18,03,15,16.70
2018,07,18,03,16,16.70
2018,07,18,03,17,16.60
2018,07,18,03,18,16.60
2018,07,18,03,19,16.60
2018,07,18,03,20,16.60
2018,07,18,03,21,16.60
2018,07,18,03,22,16.50
2018,07,18,03,23,16.50
2018,07,18,03,24,16.50
2018,07,18,03,25,16.50
2018,07,18,03,26,16.40
2018,07,18,03,27,16.40
2018,07,18,03,28,16.40
2018,07,18,03,29,16.40
2018,07,18,03,30,16.40
2018,07,18,03,31,16.40
2018,07,18,03,32,16.30
2018,07,18,03,33,16.30
2018,07,18,03,34,16.30
2018,07,18,03,35,16.30
2018,07,18,03,36,16.30
2018,07,18,03,37,16.30
2018,07,18,03,38,16.30
2018,07,18,03,39,16.30
2018,07,18,03,40,16.30
2018,07,18,03,41,16.30
2018,07,18,03,42,16.30
2018,07,18,03,43,16.30
2018,07,18,03,44,16.30
2018,07,18,03,45,16.30
2018,07,18,03,46,16.30
2018,07,18,03,47,16.20
2018,07,18,03,48,16.20
2018,07,18,03,49,16.20
2018,07,18,03,50,16.20
2018,07,18,03,51,16.20
2018,07,18,03,52,16.20
2018,07,18,03,53,16.20
2018,07,18,03,54,16.20
2018,07,18,03,55,16.20
2018,07,18,03,56,16.10
2018,07,18,03,57,16.10
2018,07,18,03,58,16.10
2018,07,18,03,59,16.10
2018,07,18,04,00,16.10
2018,07,18,04,01,16.10
2018,07,18,04,02,16.10
2018,07,18,04,03,16.10
2018,07,18,04,04,16.10
2018,07,18,04,05,16.00
2018,07,18,04,06,16.00
2018,07,18,04,07,15.90
2018,07,18,04,08,15.90
2018,07,18,04,09,15.80
2018,07,18,04,10,15.80
2018,07,18,04,11,15.80
2018,07,18,04,12,15.70
2018,07,18,04,13,15.70
2018,07,18,04,14,15.70
2018,07,18,04,15,15.60
2018,07,18,04,16,15.60
2018,07,18,04,17,15.60
2018,07,18,04,18,15.60
2018,07,18,04,19,15.60
2018,07,18,04,20,15.60
2018,07,18,04,21,15.60
2018,07,18,04,22,15.60
2018,07,18,04,23,15.60
2018,07,18,04,24,15.50
2018,07,18,04,25,15.50
2018,07,18,04,26,15.50
2018,07,18,04,27,15.50
2018,07,18,04,28,15.50
2018,07,18,04,29,15.60
2018,07,18,04,30,15.60
2018,07,18,04,31,15.60
2018,07,18,04,32,15.60
2018,07,18,04,33,15.60
2018,07,18,04,34,15.60
2018,07,18,04,35,15.70
2018,07,18,04,36,15.70
2018,07,18,04,37,15.60
2018,07,18,04,38,15.60
2018,07,18,04,39,15.60
2018,07,18,04,40,15.50
2018,07,18,04,41,15.40
2018,07,18,04,42,15.40
2018,07,18,04,43,15.30
2018,07,18,04,44,15.30
2018,07,18,04,45,15.20
2018,07,18,04,46,15.20
2018,07,18,04,47,15.10
2018,07,18,04,48,15.10
2018,07,18,04,49,15.10
2018,07,18,04,50,15.00
2018,07,18,04,51,15.00
2018,07,18,04,52,14.90
2018,07,18,04,53,14.90
2018,07,18,04,54,14.80
2018,07,18,04,55,14.80
2018,07,18,04,56,14.80
2018,07,18,04,57,14.80
2018,07,18,04,58,14.70
2018,07,18,04,59,14.70
2018,07,18,05,00,14.70
2018,07,18,05,01,14.60
2018,07,18,05,02,14.60
2018,07,18,05,03,14.60
2018,07,18,05,04,14.50
2018,07,18,05,05,14.50
2018,07,18,05,06,14.50
2018,07,18,05,07,14.40
2018,07,18,05,08,14.40
2018,07,18,05,09,14.40
2018,07,18,05,10,14.30
2018,07,18,05,11,14.30
2018,07,18,05,12,14.30
2018,07,18,05,13,14.30
2018,07,18,05,14,14.30
2018,07,18,05,15,14.20
2018,07,18,05,16,14.20
2018,07,18,05,17,14.20
2018,07,18,05,18,14.20
2018,07,18,05,19,14.20
2018,07,18,05,20,14.20
2018,07,18,05,21,14.20
2018,07,18,05,22,14.10
2018,07,18,05,23,14.10
2018,07,18,05,24,14.10
2018,07,18,05,25,14.10
2018,07,18,05,26,14.10
2018,07,18,05,27,14.10
2018,07,18,05,28,14.10
2018,07,18,05,29,14.00
2018,07,18,05,30,14.00
2018,07,18,05,31,14.00
2018,07,18,05,32,14.00
2018,07,18,05,33,14.00
2018,07,18,05,34,13.90
2018,07,18,05,35,13.90
2018,07,18,05,36,13.90
2018,07,18,05,37,13.90
2018,07,18,05,38,13.90
2018,07,18,05,39,13.90
2018,07,18,05,40,13.90
2018,07,18,05,41,13.90
2018,07,18,05,42,13.80
2018,07,18,05,43,13.80
2018,07,18,05,44,13.80
2018,07,18,05,45,13.80
2018,07,18,05,46,13.80
2018,07,18,05,47,13.80
2018,07,18,05,48,13.80
2018,07,18,05,49,13.80
2018,07,18,05,50,13.80
2018,07,18,05,51,13.80
2018,07,18,05,52,13.80
2018,07,18,05,53,13.80
2018,07,18,05,54,13.80
2018,07,18,05,55,13.80
2018,07,18,05,56,13.80
2018,07,18,05,57,13.80
2018,07,18,05,58,13.80
2018,07,18,05,59,13.80
2018,07,18,06,00,13.80
2018,07,18,06,01,13.80
2018,07,18,06,02,13.80
2018,07,18,06,03,13.80
2018,07,18,06,04,13.80
2018,07,18,06,05,13.80
2018,07,18,06,06,13.80
2018,07,18,06,07,13.80
2018,07,18,06,08,13.80
2018,07,18,06,09,13.80
2018,07,18,06,10,13.80
2018,07,18,06,11,13.80
2018,07,18,06,12,13.80
2018,07,18,06,13,13.80
2018,07,18,06,14,13.80
2018,07,18,06,15,13.90
2018,07,18,06,16,13.90
2018,07,18,06,17,13.90
2018,07,18,06,18,14.00
2018,07,18,06,19,14.00
2018,07,18,06,20,14.00
2018,07,18,06,21,14.00
2018,07,18,06,22,14.00
2018,07,18,06,23,14.00
2018,07,18,06,24,14.00
2018,07,18,06,25,14.00
2018,07,18,06,26,14.00
2018,07,18,06,27,14.00
2018,07,18,06,28,14.00
2018,07,18,06,29,14.00
2018,07,18,06,30,14.00
2018,07,18,06,31,14.10
2018,07,18,06,32,14.10
2018,07,18,06,33,14.10
2018,07,18,06,34,14.10
2018,07,18,06,35,14.20
2018,07,18,06,36,14.20
2018,07,18,06,37,14.20
2018,07,18,06,38,14.30
2018,07,18,06,39,14.30
2018,07,18,06,40,14.30
2018,07,18,06,41,14.30
2018,07,18,06,42,14.40
2018,07,18,06,43,14.40
2018,07,18,06,44,14.40
2018,07,18,06,45,14.40
2018,07,18,06,46,14.50
2018,07,18,06,47,14.60
2018,07,18,06,48,14.60
2018,07,18,06,49,14.60
2018,07,18,06,50,14.60
2018,07,18,06,51,14.70
2018,07,18,06,52,14.70
2018,07,18,06,53,14.70
2018,07,18,06,54,14.80
2018,07,18,06,55,14.80
2018,07,18,06,56,14.80
2018,07,18,06,57,14.80
2018,07,18,06,58,14.80
2018,07,18,06,59,14.80
2018,07,18,07,00,14.90
2018,07,18,07,01,14.90
2018,07,18,07,02,14.90
2018,07,18,07,03,14.90
2018,07,18,07,04,14.90
2018,07,18,07,05,14.90
2018,07,18,07,06,14.90
2018,07,18,07,07,14.90
2018,07,18,07,08,14.90
2018,07,18,07,09,14.90
2018,07,18,07,10,15.00
2018,07,18,07,11,15.00
2018,07,18,07,12,15.00
2018,07,18,07,13,15.10
2018,07,18,07,14,15.10
2018,07,18,07,15,15.20
2018,07,18,07,16,15.20
2018,07,18,07,17,15.20
2018,07,18,07,18,15.30
2018,07,18,07,19,15.30
2018,07,18,07,20,15.30
2018,07,18,07,21,15.30
2018,07,18,07,22,15.30
2018,07,18,07,23,15.30
2018,07,18,07,24,15.30
2018,07,18,07,25,15.30
2018,07,18,07,26,15.30
2018,07,18,07,27,15.30
2018,07,18,07,28,15.40
2018,07,18,07,29,15.40
2018,07,18,07,30,15.40
2018,07,18,07,31,15.30
2018,07,18,07,32,15.30
2018,07,18,07,33,15.40
2018,07,18,07,34,15.30
2018,07,18,07,35,15.30
2018,07,18,07,36,15.30
2018,07,18,07,37,15.20
2018,07,18,07,38,15.20
2018,07,18,07,39,15.20
2018,07,18,07,40,15.20
2018,07,18,07,41,15.20
2018,07,18,07,42,15.20
2018,07,18,07,43,15.20
2018,07,18,07,44,15.20
2018,07,18,07,45,15.20
2018,07,18,07,46,15.20
2018,07,18,07,47,15.20
2018,07,18,07,48,15.20
2018,07,18,07,49,15.30
2018,07,18,07,50,15.30
2018,07,18,07,51,15.30
2018,07,18,07,52,15.40
2018,07,18,07,53,15.40
2018,07,18,07,54,15.40
2018,07,18,07,55,15.40
2018,07,18,07,56,15.40
2018,07,18,07,57,15.40
2018,07,18,07,58,15.50
2018,07,18,07,59,15.60
2018,07,18,08,00,15.60
2018,07,18,08,01,15.70
2018,07,18,08,02,15.70
2018,07,18,08,03,15.80
2018,07,18,08,04,15.80
2018,07,18,08,05,15.80
2018,07,18,08,06,15.70
2018,07,18,08,07,15.70
2018,07,18,08,08,15.70
2018,07,18,08,09,15.70
2018,07,18,08,10,15.80
2018,07,18,08,11,15.80
2018,07,18,08,12,15.80
2018,07,18,08,13,15.90
2018,07,18,08,14,15.90
2018,07,18,08,15,15.90
2018,07,18,08,16,15.90
2018,07,18,08,17,15.90
2018,07,18,08,18,15.90
2018,07,18,08,19,15.90
2018,07,18,08,20,16.00
2018,07,18,08,21,16.10
2018,07,18,08,22,16.10
2018,07,18,08,23,16.20
2018,07,18,08,24,16.20
2018,07,18,08,25,16.30
2018,07,18,08,26,16.30
2018,07,18,08,27,16.20
2018,07,18,08,28,16.20
2018,07,18,08,29,16.20
2018,07,18,08,30,16.20
2018,07,18,08,31,16.20
2018,07,18,08,32,16.20
2018,07,18,08,33,16.10
2018,07,18,08,34,16.10
2018,07,18,08,35,16.10
2018,07,18,08,36,16.10
2018,07,18,08,37,16.10
2018,07,18,08,38,16.10
2018,07,18,08,39,16.10
2018,07,18,08,40,16.10
2018,07,18,08,41,16.10
2018,07,18,08,42,16.10
2018,07,18,08,43,16.20
2018,07,18,08,44,16.20
2018,07,18,08,45,16.30
2018,07,18,08,46,16.40
2018,07,18,08,47,16.50
2018,07,18,08,48,16.50
2018,07,18,08,49,16.40
2018,07,18,08,50,16.40
2018,07,18,08,51,16.40
2018,07,18,08,52,16.50
2018,07,18,08,53,16.60
2018,07,18,08,54,16.60
2018,07,18,08,55,16.70
2018,07,18,08,56,16.70
2018,07,18,08,57,16.80
2018,07,18,08,58,16.90
2018,07,18,08,59,16.90
2018,07,18,09,00,17.00
2018,07,18,09,01,16.90
2018,07,18,09,02,16.90
2018,07,18,09,03,16.90
2018,07,18,09,04,17.00
2018,07,18,09,05,17.10
2018,07,18,09,06,17.10
2018,07,18,09,07,17.20
2018,07,18,09,08,17.20
2018,07,18,09,09,17.20
2018,07,18,09,10,17.10
2018,07,18,09,11,17.20
2018,07,18,09,12,17.20
2018,07,18,09,13,17.20
2018,07,18,09,14,17.20
2018,07,18,09,15,17.30
2018,07,18,09,16,17.30
2018,07,18,09,17,17.30
2018,07,18,09,18,17.20
2018,07,18,09,19,17.20
2018,07,18,09,20,17.20
2018,07,18,09,21,17.30
2018,07,18,09,22,17.40
2018,07,18,09,23,17.40
2018,07,18,09,24,17.40
2018,07,18,09,25,17.50
2018,07,18,09,26,17.60
2018,07,18,09,27,17.70
2018,07,18,09,28,17.70
2018,07,18,09,29,17.70
2018,07,18,09,30,17.70
2018,07,18,09,31,17.70
2018,07,18,09,32,17.70
2018,07,18,09,33,17.80
2018,07,18,09,34,17.80
2018,07,18,09,35,17.90
2018,07,18,09,36,17.90
2018,07,18,09,37,18.00
2018,07,18,09,38,17.90
2018,07,18,09,39,17.90
2018,07,18,09,40,17.90
2018,07,18,09,41,18.00
2018,07,18,09,42,18.00
2018,07,18,09,43,18.10
2018,07,18,09,44,18.10
2018,07,18,09,45,18.20
2018,07,18,09,46,18.30
2018,07,18,09,47,18.40
2018,07,18,09,48,18.50
2018,07,18,09,49,18.60
2018,07,18,09,50,18.70
2018,07,18,09,51,18.70
2018,07,18,09,52,18.80
2018,07,18,09,53,18.80
2018,07,18,09,54,18.80
2018,07,18,09,55,18.90
2018,07,18,09,56,19.10
2018,07,18,09,57,19.20
2018,07,18,09,58,19.20
2018,07,18,09,59,19.20
2018,07,18,10,00,19.10
2018,07,18,10,01,19.10
2018,07,18,10,02,19.10
2018,07,18,10,03,19.00
2018,07,18,10,04,19.10
2018,07,18,10,05,19.10
2018,07,18,10,06,19.10
2018,07,18,10,07,19.00
2018,07,18,10,08,18.80
2018,07,18,10,09,18.70
2018,07,18,10,10,18.60
2018,07,18,10,11,18.50
2018,07,18,10,12,18.40
2018,07,18,10,13,18.50
2018,07,18,10,14,18.60
2018,07,18,10,15,18.70
2018,07,18,10,16,18.80
2018,07,18,10,17,19.00
2018,07,18,10,18,19.10
2018,07,18,10,19,19.20
2018,07,18,10,20,19.10
2018,07,18,10,21,19.10
2018,07,18,10,22,19.10
2018,07,18,10,23,19.20
2018,07,18,10,24,19.30
2018,07,18,10,25,19.40
2018,07,18,10,26,19.50
2018,07,18,10,27,19.50
2018,07,18,10,28,19.50
2018,07,18,10,29,19.70
2018,07,18,10,30,19.70
2018,07,18,10,31,19.70
2018,07,18,10,32,19.60
2018,07,18,10,33,19.70
2018,07,18,10,34,19.70
2018,07,18,10,35,19.70
2018,07,18,10,36,19.80
2018,07,18,10,37,19.90
2018,07,18,10,38,20.00
2018,07,18,10,39,20.10
2018,07,18,10,40,20.10
2018,07,18,10,41,20.20
2018,07,18,10,42,20.30
2018,07,18,10,43,20.30
2018,07,18,10,44,20.10
2018,07,18,10,45,19.90
2018,07,18,10,46,19.80
2018,07,18,10,47,19.70
2018,07,18,10,48,19.70
2018,07,18,10,49,19.80
2018,07,18,10,50,19.90
2018,07,18,10,51,20.00
2018,07,18,10,52,20.10
2018,07,18,10,53,20.10
2018,07,18,10,54,20.10
2018,07,18,10,55,20.20
2018,07,18,10,56,20.20
2018,07,18,10,57,20.30
2018,07,18,10,58,20.20
2018,07,18,10,59,20.20
2018,07,18,11,00,20.20
2018,07,18,11,01,20.20
2018,07,18,11,02,20.20
2018,07,18,11,03,20.20
2018,07,18,11,04,20.20
2018,07,18,11,05,20.30
2018,07,18,11,06,20.40
2018,07,18,11,07,20.40
2018,07,18,11,08,20.40
2018,07,18,11,09,20.40
2018,07,18,11,10,20.50
2018,07,18,11,11,20.60
2018,07,18,11,12,20.60
2018,07,18,11,13,20.60
2018,07,18,11,14,20.60
2018,07,18,11,15,20.60
2018,07,18,11,16,20.70
2018,07,18,11,17,20.60
2018,07,18,11,18,20.50
2018,07,18,11,19,20.40
2018,07,18,11,20,20.40
2018,07,18,11,21,20.40
2018,07,18,11,22,20.40
2018,07,18,11,23,20.40
2018,07,18,11,24,20.50
2018,07,18,11,25,20.50
2018,07,18,11,26,20.40
2018,07,18,11,27,20.40
2018,07,18,11,28,20.40
2018,07,18,11,29,20.40
2018,07,18,11,30,20.40
2018,07,18,11,31,20.30
2018,07,18,11,32,20.20
2018,07,18,11,33,20.20
2018,07,18,11,34,20.20
2018,07,18,11,35,20.20
2018,07,18,11,36,20.20
2018,07,18,11,37,20.20
2018,07,18,11,38,20.10
2018,07,18,11,39,20.20
2018,07,18,11,40,20.30
2018,07,18,11,41,20.40
2018,07,18,11,42,20.40
2018,07,18,11,43,20.50
2018,07,18,11,44,20.50
2018,07,18,11,45,20.60
2018,07,18,11,46,20.60
2018,07,18,11,47,20.60
2018,07,18,11,48,20.60
2018,07,18,11,49,20.60
2018,07,18,11,50,20.60
2018,07,18,11,51,20.60
2018,07,18,11,52,20.50
2018,07,18,11,53,20.50
2018,07,18,11,54,20.50
2018,07,18,11,55,20.40
2018,07,18,11,56,20.40
2018,07,18,11,57,20.50
2018,07,18,11,58,20.60
2018,07,18,11,59,20.70
2018,07,18,12,00,20.70
2018,07,18,12,01,20.70
2018,07,18,12,02,20.70
2018,07,18,12,03,20.70
2018,07,18,12,04,20.70
2018,07,18,12,05,20.70
2018,07,18,12,06,20.80
2018,07,18,12,07,20.90
2018,07,18,12,08,21.10
2018,07,18,12,09,21.20
2018,07,18,12,10,21.30
2018,07,18,12,11,21.30
2018,07,18,12,12,21.50
2018,07,18,12,13,21.70
2018,07,18,12,14,21.70
2018,07,18,12,15,21.70
2018,07,18,12,16,21.70
2018,07,18,12,17,21.60
2018,07,18,12,18,21.50
2018,07,18,12,19,21.30
2018,07,18,12,20,21.20
2018,07,18,12,21,21.00
2018,07,18,12,22,21.00
2018,07,18,12,23,21.00
2018,07,18,12,24,21.00
2018,07,18,12,25,21.00
2018,07,18,12,26,21.20
2018,07,18,12,27,21.30
2018,07,18,12,28,21.60
2018,07,18,12,29,21.70
2018,07,18,12,30,21.80
2018,07,18,12,31,21.90
2018,07,18,12,32,21.90
2018,07,18,12,33,22.00
2018,07,18,12,34,22.00
2018,07,18,12,35,21.80
2018,07,18,12,36,21.70
2018,07,18,12,37,21.70
2018,07,18,12,38,21.70
2018,07,18,12,39,21.60
2018,07,18,12,40,21.70
2018,07,18,12,41,21.90
2018,07,18,12,42,22.10
2018,07,18,12,43,22.20
2018,07,18,12,44,22.20
2018,07,18,12,45,22.30
2018,07,18,12,46,22.30
2018,07,18,12,47,22.40
2018,07,18,12,48,22.40
2018,07,18,12,49,22.40
2018,07,18,12,50,22.30
2018,07,18,12,51,22.20
2018,07,18,12,52,22.30
2018,07,18,12,53,22.20
2018,07,18,12,54,22.00
2018,07,18,12,55,21.90
2018,07,18,12,56,21.80
2018,07,18,12,57,22.00
2018,07,18,12,58,22.10
2018,07,18,12,59,22.00
2018,07,18,13,00,21.80
2018,07,18,13,01,21.60
2018,07,18,13,02,21.60
2018,07,18,13,03,21.60
2018,07,18,13,04,21.60
2018,07,18,13,05,21.50
2018,07,18,13,06,21.50
2018,07,18,13,07,21.60
2018,07,18,13,08,21.70
2018,07,18,13,09,21.60
2018,07,18,13,10,21.60
2018,07,18,13,11,21.50
2018,07,18,13,12,21.50
2018,07,18,13,13,21.40
2018,07,18,13,14,21.40
2018,07,18,13,15,21.30
2018,07,18,13,16,21.20
2018,07,18,13,17,21.20
2018,07,18,13,18,21.30
2018,07,18,13,19,21.40
2018,07,18,13,20,21.40
2018,07,18,13,21,21.40
2018,07,18,13,22,21.20
2018,07,18,13,23,21.20
2018,07,18,13,24,21.20
2018,07,18,13,25,21.20
2018,07,18,13,26,21.20
2018,07,18,13,27,21.30
2018,07,18,13,28,21.30
2018,07,18,13,29,21.30
2018,07,18,13,30,21.30
2018,07,18,13,31,21.50
2018,07,18,13,32,21.70
2018,07,18,13,33,21.80
2018,07,18,13,34,21.80
2018,07,18,13,35,21.80
2018,07,18,13,36,21.90
2018,07,18,13,37,21.90
2018,07,18,13,38,22.00
2018,07,18,13,39,21.90
2018,07,18,13,40,21.90
2018,07,18,13,41,21.90
2018,07,18,13,42,21.90
2018,07,18,13,43,21.90
2018,07,18,13,44,21.90
2018,07,18,13,45,21.90
2018,07,18,13,46,21.80
2018,07,18,13,47,21.80
2018,07,18,13,48,21.90
2018,07,18,13,49,22.00
2018,07,18,13,50,22.10
2018,07,18,13,51,22.20
2018,07,18,13,52,22.30
2018,07,18,13,53,22.30
2018,07,18,13,54,22.30
2018,07,18,13,55,22.40
2018,07,18,13,56,22.50
2018,07,18,13,57,22.50
2018,07,18,13,58,22.50
2018,07,18,13,59,22.50
2018,07,18,14,00,22.60
2018,07,18,14,01,22.60
2018,07,18,14,02,22.60
2018,07,18,14,03,22.40
2018,07,18,14,04,22.20
2018,07,18,14,05,22.20
2018,07,18,14,06,22.20
2018,07,18,14,07,22.40
2018,07,18,14,08,22.70
2018,07,18,14,09,22.80
2018,07,18,14,10,23.00
2018,07,18,14,11,23.10
2018,07,18,14,12,23.00
2018,07,18,14,13,22.80
2018,07,18,14,14,22.50
2018,07,18,14,15,22.40
2018,07,18,14,16,22.30
2018,07,18,14,17,22.30
2018,07,18,14,18,22.40
2018,07,18,14,19,22.70
2018,07,18,14,20,22.80
2018,07,18,14,21,22.90
2018,07,18,14,22,23.00
2018,07,18,14,23,23.10
2018,07,18,14,24,23.20
2018,07,18,14,25,23.30
2018,07,18,14,26,23.30
2018,07,18,14,27,23.30
2018,07,18,14,28,23.40
2018,07,18,14,29,23.50
2018,07,18,14,30,23.60
2018,07,18,14,31,23.70
2018,07,18,14,32,23.80
2018,07,18,14,33,23.80
2018,07,18,14,34,23.70
2018,07,18,14,35,23.70
2018,07,18,14,36,23.80
2018,07,18,14,37,23.80
2018,07,18,14,38,23.80
2018,07,18,14,39,23.90
2018,07,18,14,40,24.10
2018,07,18,14,41,24.20
2018,07,18,14,42,24.30
2018,07,18,14,43,24.30
2018,07,18,14,44,24.50
2018,07,18,14,45,24.60
2018,07,18,14,46,24.70
2018,07,18,14,47,24.70
2018,07,18,14,48,24.50
2018,07,18,14,49,24.30
2018,07,18,14,50,24.20
2018,07,18,14,51,24.10
2018,07,18,14,52,24.10
2018,07,18,14,53,24.10
2018,07,18,14,54,24.10
2018,07,18,14,55,24.10
2018,07,18,14,56,24.00
2018,07,18,14,57,24.00
2018,07,18,14,58,24.00
2018,07,18,14,59,24.10
2018,07,18,15,00,24.20
2018,07,18,15,01,24.30
2018,07,18,15,02,24.40
2018,07,18,15,03,24.30
2018,07,18,15,04,24.10
2018,07,18,15,05,24.00
2018,07,18,15,06,23.90
2018,07,18,15,07,23.90
2018,07,18,15,08,23.90
2018,07,18,15,09,24.00
2018,07,18,15,10,24.10
2018,07,18,15,11,24.10
2018,07,18,15,12,24.20
2018,07,18,15,13,24.30
2018,07,18,15,14,24.30
2018,07,18,15,15,24.30
2018,07,18,15,16,24.50
2018,07,18,15,17,24.60
2018,07,18,15,18,24.60
2018,07,18,15,19,24.70
2018,07,18,15,20,24.60
2018,07,18,15,21,24.60
2018,07,18,15,22,24.60
2018,07,18,15,23,24.50
2018,07,18,15,24,24.50
2018,07,18,15,25,24.60
2018,07,18,15,26,24.60
2018,07,18,15,27,24.60
2018,07,18,15,28,24.70
2018,07,18,15,29,24.80
2018,07,18,15,30,24.90
2018,07,18,15,31,24.90
2018,07,18,15,32,25.00
2018,07,18,15,33,24.90
2018,07,18,15,34,24.90
2018,07,18,15,35,24.80
2018,07,18,15,36,24.70
2018,07,18,15,37,24.70
2018,07,18,15,38,24.70
2018,07,18,15,39,24.70
2018,07,18,15,40,24.70
2018,07,18,15,41,24.60
2018,07,18,15,42,24.60
2018,07,18,15,43,24.70
2018,07,18,15,44,24.60
2018,07,18,15,45,24.60
2018,07,18,15,46,24.50
2018,07,18,15,47,24.50
2018,07,18,15,48,24.50
2018,07,18,15,49,24.50
2018,07,18,15,50,24.40
2018,07,18,15,51,24.40
2018,07,18,15,52,24.40
2018,07,18,15,53,24.50
2018,07,18,15,54,24.70
2018,07,18,15,55,24.80
2018,07,18,15,56,25.00
2018,07,18,15,57,25.10
2018,07,18,15,58,25.10
2018,07,18,15,59,25.10
2018,07,18,16,00,25.00
2018,07,18,16,01,25.00
2018,07,18,16,02,25.00
2018,07,18,16,03,24.90
2018,07,18,16,04,24.80
2018,07,18,16,05,24.80
2018,07,18,16,06,24.80
2018,07,18,16,07,24.80
2018,07,18,16,08,24.90
2018,07,18,16,09,25.00
2018,07,18,16,10,25.10
2018,07,18,16,11,25.10
2018,07,18,16,12,25.10
2018,07,18,16,13,25.20
2018,07,18,16,14,25.20
2018,07,18,16,15,25.30
2018,07,18,16,16,25.30
2018,07,18,16,17,25.30
2018,07,18,16,18,25.30
2018,07,18,16,19,25.30
2018,07,18,16,20,25.10
2018,07,18,16,21,25.00
2018,07,18,16,22,24.90
2018,07,18,16,23,24.90
2018,07,18,16,24,24.90
2018,07,18,16,25,24.90
2018,07,18,16,26,25.00
2018,07,18,16,27,25.10
2018,07,18,16,28,25.00
2018,07,18,16,29,24.80
2018,07,18,16,30,24.80
2018,07,18,16,31,24.90
2018,07,18,16,32,25.00
2018,07,18,16,33,25.00
2018,07,18,16,34,25.00
2018,07,18,16,35,25.00
2018,07,18,16,36,24.90
2018,07,18,16,37,24.90
2018,07,18,16,38,24.80
2018,07,18,16,39,24.70
2018,07,18,16,40,24.70
2018,07,18,16,41,24.60
2018,07,18,16,42,24.60
2018,07,18,16,43,24.60
2018,07,18,16,44,24.70
2018,07,18,16,45,24.70
2018,07,18,16,46,24.70
2018,07,18,16,47,24.70
2018,07,18,16,48,24.80
2018,07,18,16,49,24.80
2018,07,18,16,50,24.90
2018,07,18,16,51,25.00
2018,07,18,16,52,25.10
2018,07,18,16,53,25.10
2018,07,18,16,54,25.10
2018,07,18,16,55,25.10
2018,07,18,16,56,25.10
2018,07,18,16,57,25.10
2018,07,18,16,58,25.10
2018,07,18,16,59,25.00
2018,07,18,17,00,25.00
2018,07,18,17,01,25.10
2018,07,18,17,02,25.10
2018,07,18,17,03,25.20
2018,07,18,17,04,25.40
2018,07,18,17,05,25.50
2018,07,18,17,06,25.50
2018,07,18,17,07,25.40
2018,07,18,17,08,25.40
2018,07,18,17,09,25.30
2018,07,18,17,10,25.30
2018,07,18,17,11,25.40
2018,07,18,17,12,25.30
2018,07,18,17,13,25.20
2018,07,18,17,14,25.10
2018,07,18,17,15,25.00
2018,07,18,17,16,24.90
2018,07,18,17,17,24.90
2018,07,18,17,18,24.90
2018,07,18,17,19,25.00